SCP
0 0 0 0 0 0 0 0 0 0 0 0 0 0 0 0 0 0 0 0 0 0 0 0 0 0 0 0 0 0 0 0 0 0 0 0 0 0 0 0 0 0 0
0 0 0 0 0 0 0 0 0 0 0 0 0 0 0 0 0 0 0 0 0 0 0 0 0 0 0 0 0 0 0 0 0 0 0 0 0 0 0 0 0 0 0
0 0 0 0 0 0 0 0 0 0 0 0 0 0 0 0 0 0 0 0 0 0 0 0 0 0 0 0 0 0 0 0 0 0 0 0 0 0 0 0 0 0 0
0 0 0 0 0 0 0 0 0 0 0 0 0 0 0 0 0 0 0 0 0 0 0 0 0 0 0 0 0 0 0 0 0 0 0 0 0 0 0 0 0 0 0
0 0 0 0 0 0 0 0 0 0 0 0 0 0 0 0 0 0 0 0 0 0 0 0 0 0 0 0 0 0 0 0 0 0 0 0 0 0 0 0 0 0 0
0 0 0 0 0 0 0 0 0 0 0 0 0 0 0 0 0 0 0 0 0 0 0 0 0 0 0 0 0 0 0 0 0 0 0 0 0 0 0 0 0 0 0
0 0 0 0 0 0 0 0 0 0 0 0 0 0 0 0 0 0 0 0 0 0 0 0 0 0 0 0 0 0 0 0 0 0 0 0 0 0 0 0 0 0 0
0 0 0 0 0 0 0 0 0 0 0 0 0 0 0 0 0 0 0 0 0 0 0 0 0 0 0 0 0 0 0 0 0 0 0 0 0 0 0 0 0 0 0
0 0 0 0 0 0 0 0 0 0 0 0 0 0 0 0 0 0 0 0 0 0 0 0 0 0 0 0 0 0 0 0 0 0 0 0 0 0 0 0 0 0 0
0 0 0 0 0 0 0 0 0 0 0 0 0 0 0 0 0 0 0 0 0 0 0 0 0 0 0 0 0 0 0 0 0 0 0 0 0 0 0 0 0 0 0
0 0 0 0 0 0 0 0 0 0 0 0 0 0 0 0 0 0 0 0 0 0 0 0 0 0 0 0 0 0 0 0 0 0 0 0 0 0 0 0 0 0 0
0 0 0 0 0 0 0 0 0 0 0 0 0 0 0 0 0 0 0 0 0 0 0 0 0 0 0 0 0 0 0 0 0 0 0 0 0 0 0 0 0 0 0
0 0 0 0 0 0 0 0 0 0 0 0 0 0 0 0 0 0 0 0 0 0 0 0 0 0 0 0 0 0 0 0 0 0 0 0 0 0 0 0 0 0 0
0 0 0 0 0 0 0 0 0 0 0 0 0 0 0 0 0 0 0 0 0 0 0 0 0 0 0 0 0 0 0 0 0 0 0 0 0 0 0 0 0 0 0
0 0 0 0 0 0 0 0 0 0 0 0 0 0 0 0 0 0 0 0 0 0 0 0 0 0 0 0 0 0 0 0 0 0 0 0 0 0 0 0 0 0 0
0 0 0 0 0 0 0 0 0 0 0 0 0 0 0 0 0 0 0 0 0 0 0 0 0 0 0 0 0 -0 -0 -0 -0 0 0 0 0 0 0 0 0 0 0
0 0 0 0 0 0 0 0 0 0 0 0 0 0 0 0 0 0 0 0 0 0 0 0 0 0 0 0 0 0 0 0 0 0 0 0 0 0 0 0 0 0 0
0 0 0 0 0 0 0 0 0 0 0 0 0 0 0 0 0 0 0 0 0 0 0 0 0 0 0 0 0 0 0 0 0 0 0 0 0 0 0 0 0 0 0
0 0 0 0 0 0 0 0 0 0 0 0 0 0 0 0 0 0 0 0 0 0 0 0 0 0 0 0 0 0 0 0 0 0 0 0 0 0 0 0 0 0 0
0 0 0 0 0 0 0 0 0 0 0 0 0 0 0 0 0 0 0 0 0 0 0 0 0 0 0 0 0 0 0 0 0 0 0 0 0 0 0 0 0 0 0
0 0 0 0 0 0 0 0 0 0 0 0 0 0 0 0 0 0 0 0 0 0 0 0 0 0 0 0 0 0 0 0 0 0 0 0 0 0 0 0 0 0 0
0 0 0 0 0 0 0 0 0 0 0 0 0 0 0 0 0 0 0 0 0 0 0 0 0 0 0 0 0 0 0 0 0 0 0 0 0 0 0 0 0 0 0
0 0 0 0 0 0 0 0 0 0 0 0 0 0 0 0 0 0 0 0 0 0 0 0 0 0 0 0 0 0 0 0 0 0 0 0 0 0 0 0 0 0 0
0 0 0 0 0 0 0 0 0 0 0 0 0 0 0 0 0 0 0 0 0 0 0 0 0 0 0 0 0 0 0 0 0 0 0 0 0 0 0 0 0 0 0
0 0 0 0 0 0 0 0 0 0 0 0 0 0 0 0 0 0 0 0 0 0 0 0 0 0 0 0 0 0 0 0 0 0 0 0 0 0 0 0 0 0 0
0 0 0 0 0 0 0 0 0 0 0 0 0 0 0 0 0 0 0 0 0 0 0 0 0 0 0 0 0 0 0 0 0 0 0 0 0 0 0 0 0 0 0
Wind_Speed_500mb
28 26 26 26 25 25 24 23 22 19 18 20 22 26 25 25 24 25 24 22 23 18 21 19 18 23 18 16 20 28 34 33 30 22 40 34 38 42 39 45 37 29 27
28 28 29 28 26 23 19 18 20 23 25 24 22 25 26 27 29 29 27 26 25 22 21 24 23 23 19 16 18 21 19 21 30 30 40 37 36 46 42 46 27 19 23
27 29 28 27 25 22 21 22 24 21 22 22 24 26 27 29 29 32 32 33 35 33 33 30 24 22 16 15 15 15 14 18 24 26 37 35 40 49 44 35 29 39 30
25 27 29 28 26 25 23 21 20 21 22 24 26 27 27 29 30 31 32 29 36 36 35 35 27 24 16 17 16 14 15 15 19 26 34 40 44 46 42 39 40 41 35
24 26 28 25 22 22 24 24 25 29 27 27 28 29 25 27 29 31 30 40 36 37 32 29 34 34 27 27 21 17 14 15 18 25 32 39 42 47 50 42 42 42 27
22 22 22 19 18 22 23 24 27 31 29 28 28 26 24 26 45 38 35 33 38 33 32 34 36 32 33 31 29 33 29 22 23 23 34 40 43 56 54 55 46 38 37
20 20 18 18 19 24 26 28 29 32 33 36 39 38 37 44 37 32 30 37 36 32 32 28 25 30 24 24 23 26 31 35 39 33 36 43 49 50 58 58 47 46 29
22 21 22 26 27 28 30 32 35 36 37 39 36 33 33 34 30 28 29 33 30 29 29 30 31 35 27 26 24 27 32 33 39 42 43 32 25 36 36 41 37 30 23
17 19 22 24 26 29 32 31 33 33 32 34 30 27 31 27 27 28 26 26 27 28 29 31 33 34 29 29 29 34 33 32 34 40 45 41 41 33 32 34 38 37 35
12 16 20 23 26 28 29 28 28 28 29 28 25 22 25 21 16 21 20 22 22 26 27 25 27 33 29 28 25 21 16 22 20 25 35 36 33 33 41 36 36 41 34
11 15 19 23 26 27 27 25 23 24 23 24 19 18 17 17 19 23 22 19 18 18 19 20 22 19 16 12 14 12 21 15 15 16 20 27 34 39 51 50 47 45 34
14 16 21 26 28 30 26 23 19 21 20 18 16 19 18 18 20 18 18 18 15 12 12 14 17 11 9 8 13 13 12 4 7 11 13 16 25 42 50 51 46 45 42
15 17 21 26 30 31 27 22 20 20 19 15 16 20 15 15 18 16 14 15 15 14 12 13 9 7 9 11 17 15 11 11 10 12 16 20 25 25 32 36 39 41 39
16 19 21 24 24 24 22 19 18 16 17 17 17 14 12 11 15 13 13 13 13 15 12 12 9 3 8 2 12 12 13 16 14 15 14 19 21 20 19 20 21 22 21
20 21 22 22 20 18 21 22 24 22 18 16 16 15 14 14 15 13 11 11 14 14 15 10 5 9 9 9 10 12 14 14 11 13 18 20 19 20 21 19 18 15 15
22 23 23 21 21 23 24 27 28 22 20 19 18 18 17 17 16 12 11 11 14 15 13 10 10 11 7 9 10 11 11 12 10 11 15 15 16 16 17 17 19 17 15
22 24 24 22 23 26 22 26 23 21 18 19 18 17 16 16 17 16 14 11 12 17 13 10 10 10 8 8 10 12 12 14 20 17 15 15 16 17 18 17 18 18 19
32 35 26 25 27 27 26 26 23 16 17 20 19 17 16 17 18 17 14 13 15 15 12 12 12 13 13 13 13 14 16 15 17 17 20 21 21 18 17 17 17 17 16
34 32 28 26 26 27 27 27 24 18 16 16 19 19 18 17 16 13 15 9 10 9 10 10 10 12 13 13 14 15 14 14 17 17 15 17 19 17 17 16 17 19 18
29 30 29 26 28 27 26 25 22 21 23 19 19 20 24 20 18 18 19 16 16 12 12 11 12 14 16 17 18 18 18 19 18 19 18 18 18 17 18 19 18 19 15
28 31 28 26 27 28 28 27 27 27 24 24 22 23 22 18 17 15 11 11 11 8 10 12 13 17 20 19 15 16 15 15 16 17 15 15 17 15 14 15 14 14 14
28 29 29 27 27 28 28 30 31 30 28 27 26 25 21 21 16 16 15 14 16 14 11 16 14 14 15 16 18 19 19 18 18 19 19 19 17 16 15 14 13 13 13
28 28 30 29 27 28 30 29 30 29 29 30 30 28 29 23 21 18 19 18 14 15 16 17 21 18 21 25 22 18 18 17 17 18 18 18 17 16 16 15 16 17 16
27 28 28 28 31 33 33 31 31 31 31 30 29 27 30 27 24 22 21 18 18 16 18 22 22 23 22 19 20 20 19 21 19 20 21 16 16 21 18 20 19 19 20
27 30 30 31 32 32 34 33 30 30 29 30 29 29 30 28 25 23 18 15 11 16 17 18 21 21 19 16 15 21 25 21 18 15 15 17 19 22 20 21 19 17 16
26 30 31 31 34 33 32 31 31 29 27 29 30 28 27 24 22 19 17 16 17 16 16 15 15 15 15 16 16 15 16 16 16 15 13 15 18 22 22 20 21 18 20
Wind_Direction_500mb
216 217 218 217 217 223 232 231 230 232 237 242 247 255 254 254 254 253 252 239 249 250 260 264 263 258 262 254 256 249 236 239 254 254 212 217 208 218 221 215 233 232 226
229 230 225 222 223 228 228 228 229 244 249 245 243 249 248 247 251 254 243 241 245 244 245 267 271 272 274 264 264 255 242 235 236 226 199 209 212 209 217 222 202 205 217
233 231 226 221 218 214 211 220 240 240 243 253 258 251 251 249 247 249 247 243 253 249 255 263 263 262 258 254 256 247 240 225 222 236 211 208 207 208 212 216 187 203 217
227 225 224 217 210 206 212 225 233 245 250 258 259 253 250 252 250 248 245 244 245 249 258 262 249 254 249 250 253 243 236 228 209 207 210 210 208 205 212 195 192 208 222
214 211 211 207 206 215 228 238 247 258 259 257 252 255 256 254 255 245 237 245 249 250 254 262 247 257 254 246 227 226 239 221 219 207 200 201 196 198 199 195 202 211 204
201 201 202 205 211 234 246 251 260 268 271 266 266 261 255 249 243 247 244 254 249 255 257 253 259 262 260 258 251 231 229 217 227 211 203 207 200 202 202 200 197 192 187
191 194 200 220 231 245 256 261 263 270 269 270 266 259 242 240 260 249 243 243 253 259 258 258 265 259 269 261 251 245 244 240 230 218 222 224 215 226 213 210 202 200 197
192 207 230 241 249 262 268 271 274 279 281 277 271 261 251 249 249 244 244 253 256 250 244 234 240 265 269 276 278 269 261 256 242 229 214 215 219 223 218 210 198 197 204
232 244 253 260 266 270 270 273 277 282 284 277 270 255 253 242 247 254 258 254 255 255 251 254 260 265 276 279 275 272 275 264 250 237 227 205 198 190 189 200 193 189 182
241 253 255 257 260 262 269 278 283 284 281 277 261 254 249 253 262 263 250 255 261 260 263 263 266 275 279 274 261 255 237 263 255 236 226 220 212 209 195 191 195 193 191
261 261 260 259 260 265 273 279 283 275 276 277 268 259 252 254 249 249 247 253 262 268 273 277 278 280 276 263 242 213 233 261 243 239 225 211 208 204 201 196 197 190 209
271 272 271 263 257 256 262 269 271 266 262 259 258 249 244 242 244 243 248 249 244 254 263 269 294 276 262 235 233 223 204 240 139 161 174 168 180 199 200 203 205 199 196
273 275 269 265 255 253 257 259 253 259 253 245 246 252 245 233 248 250 252 253 249 227 248 260 275 282 281 251 197 178 155 132 133 151 159 165 184 189 189 197 203 208 215
274 281 282 275 268 263 251 246 246 241 228 238 226 223 237 240 248 254 261 253 232 233 245 238 246 186 166 188 148 151 136 141 169 178 150 133 138 142 160 175 182 188 196
268 267 268 263 251 246 225 228 235 230 227 232 232 226 218 205 245 254 250 239 211 208 209 220 195 185 187 156 153 159 161 160 170 157 134 132 135 135 135 138 138 135 148
260 257 257 261 242 234 230 236 243 242 239 236 232 219 222 216 238 237 229 224 224 215 185 177 177 185 175 172 172 163 157 156 162 156 150 151 146 145 144 141 135 143 148
258 260 252 244 233 227 219 236 235 231 229 228 226 230 231 226 226 217 209 195 178 172 171 185 176 173 182 167 162 163 165 179 170 163 160 159 154 166 153 147 152 155 155
257 257 251 237 228 226 219 207 230 226 215 215 213 212 214 210 207 209 204 186 169 162 175 188 192 188 185 186 182 174 181 193 163 167 169 173 182 169 159 163 160 159 159
250 248 234 225 220 217 217 212 220 206 202 204 192 188 187 195 194 193 176 157 191 199 192 192 199 189 189 190 188 184 190 163 175 167 181 171 167 166 170 169 173 171 170
247 230 219 216 215 205 200 201 197 201 196 195 172 176 174 185 177 185 172 192 208 202 198 193 196 196 194 193 202 193 182 191 185 172 192 182 174 171 176 173 182 180 163
232 216 213 211 204 197 196 193 193 196 188 176 185 189 187 168 188 186 190 190 171 207 218 200 203 197 197 191 195 189 184 184 186 182 189 189 178 172 178 172 178 168 182
214 213 205 200 194 190 190 193 192 189 188 184 200 202 187 173 203 197 203 203 192 187 206 191 198 194 186 188 194 196 194 194 194 189 187 190 188 186 187 187 186 189 202
206 198 195 192 188 191 184 188 189 190 192 198 207 207 190 191 210 212 218 226 214 193 181 207 180 182 201 199 197 198 193 201 206 195 195 190 188 195 195 198 201 214 222
195 190 182 180 187 181 181 189 190 190 194 201 205 198 191 201 207 211 221 226 223 217 198 193 183 193 211 194 192 191 191 211 211 211 187 195 193 203 200 207 223 226 225
189 183 184 190 187 182 188 190 186 193 198 197 193 193 195 203 205 213 215 221 189 176 182 176 177 197 201 194 196 184 211 221 212 215 208 200 201 215 208 225 230 239 238
187 187 190 186 187 192 195 195 194 197 197 194 191 196 197 195 200 203 205 191 177 178 181 181 191 199 203 211 220 219 219 226 230 232 222 206 211 220 234 231 235 224 240
Wind_Speed_850mb
28 26 26 26 25 25 24 23 22 19 18 20 22 26 25 25 24 25 24 22 23 18 21 19 18 23 18 16 20 28 34 33 30 22 40 34 38 42 39 45 37 29 27
28 28 29 28 26 23 19 18 20 23 25 24 22 25 26 27 29 29 27 26 25 22 21 24 23 23 19 16 18 21 19 21 30 30 40 37 36 46 42 46 27 19 23
27 29 28 27 25 22 21 22 24 21 22 22 24 26 27 29 29 32 32 33 35 33 33 30 24 22 16 15 15 15 14 18 24 26 37 35 40 49 44 35 29 39 30
25 27 29 28 26 25 23 21 20 21 22 24 26 27 27 29 30 31 32 29 36 36 35 35 27 24 16 17 16 14 15 15 19 26 34 40 44 46 42 39 40 41 35
24 26 28 25 22 22 24 24 25 29 27 27 28 29 25 27 29 31 30 40 36 37 32 29 34 34 27 27 21 17 14 15 18 25 32 39 42 47 50 42 42 42 27
22 22 22 19 18 22 23 24 27 31 29 28 28 26 24 26 45 38 35 33 38 33 32 34 36 32 33 31 29 33 29 22 23 23 34 40 43 56 54 55 46 38 37
20 20 18 18 19 24 26 28 29 32 33 36 39 38 37 44 37 32 30 37 36 32 32 28 25 30 24 24 23 26 31 35 39 33 36 43 49 50 58 58 47 46 29
22 21 22 26 27 28 30 32 35 36 37 39 36 33 33 34 30 28 29 33 30 29 29 30 31 35 27 26 24 27 32 33 39 42 43 32 25 36 36 41 37 30 23
17 19 22 24 26 29 32 31 33 33 32 34 30 27 31 27 27 28 26 26 27 28 29 31 33 34 29 29 29 34 33 32 34 40 45 41 41 33 32 34 38 37 35
12 16 20 23 26 28 29 28 28 28 29 28 25 22 25 21 16 21 20 22 22 26 27 25 27 33 29 28 25 21 16 22 20 25 35 36 33 33 41 36 36 41 34
11 15 19 23 26 27 27 25 23 24 23 24 19 18 17 17 19 23 22 19 18 18 19 20 22 19 16 12 14 12 21 15 15 16 20 27 34 39 51 50 47 45 34
14 16 21 26 28 30 26 23 19 21 20 18 16 19 18 18 20 18 18 18 15 12 12 14 17 11 9 8 13 13 12 4 7 11 13 16 25 42 50 51 46 45 42
15 17 21 26 30 31 27 22 20 20 19 15 16 20 15 15 18 16 14 15 15 14 12 13 9 7 9 11 17 15 11 11 10 12 16 20 25 25 32 36 39 41 39
16 19 21 24 24 24 22 19 18 16 17 17 17 14 12 11 15 13 13 13 13 15 12 12 9 3 8 2 12 12 13 16 14 15 14 19 21 20 19 20 21 22 21
20 21 22 22 20 18 21 22 24 22 18 16 16 15 14 14 15 13 11 11 14 14 15 10 5 9 9 9 10 12 14 14 11 13 18 20 19 20 21 19 18 15 15
22 23 23 21 21 23 24 27 28 22 20 19 18 18 17 17 16 12 11 11 14 15 13 10 10 11 7 9 10 11 11 12 10 11 15 15 16 16 17 17 19 17 15
22 24 24 22 23 26 22 26 23 21 18 19 18 17 16 16 17 16 14 11 12 17 13 10 10 10 8 8 10 12 12 14 20 17 15 15 16 17 18 17 18 18 19
32 35 26 25 27 27 26 26 23 16 17 20 19 17 16 17 18 17 14 13 15 15 12 12 12 13 13 13 13 14 16 15 17 17 20 21 21 18 17 17 17 17 16
34 32 28 26 26 27 27 27 24 18 16 16 19 19 18 17 16 13 15 9 10 9 10 10 10 12 13 13 14 15 14 14 17 17 15 17 19 17 17 16 17 19 18
29 30 29 26 28 27 26 25 22 21 23 19 19 20 24 20 18 18 19 16 16 12 12 11 12 14 16 17 18 18 18 19 18 19 18 18 18 17 18 19 18 19 15
28 31 28 26 27 28 28 27 27 27 24 24 22 23 22 18 17 15 11 11 11 8 10 12 13 17 20 19 15 16 15 15 16 17 15 15 17 15 14 15 14 14 14
28 29 29 27 27 28 28 30 31 30 28 27 26 25 21 21 16 16 15 14 16 14 11 16 14 14 15 16 18 19 19 18 18 19 19 19 17 16 15 14 13 13 13
28 28 30 29 27 28 30 29 30 29 29 30 30 28 29 23 21 18 19 18 14 15 16 17 21 18 21 25 22 18 18 17 17 18 18 18 17 16 16 15 16 17 16
27 28 28 28 31 33 33 31 31 31 31 30 29 27 30 27 24 22 21 18 18 16 18 22 22 23 22 19 20 20 19 21 19 20 21 16 16 21 18 20 19 19 20
27 30 30 31 32 32 34 33 30 30 29 30 29 29 30 28 25 23 18 15 11 16 17 18 21 21 19 16 15 21 25 21 18 15 15 17 19 22 20 21 19 17 16
26 30 31 31 34 33 32 31 31 29 27 29 30 28 27 24 22 19 17 16 17 16 16 15 15 15 15 16 16 15 16 16 16 15 13 15 18 22 22 20 21 18 20
Wind_Direction_850mb
216 217 218 217 217 223 232 231 230 232 237 242 247 255 254 254 254 253 252 239 249 250 260 264 263 258 262 254 256 249 236 239 254 254 212 217 208 218 221 215 233 232 226
229 230 225 222 223 228 228 228 229 244 249 245 243 249 248 247 251 254 243 241 245 244 245 267 271 272 274 264 264 255 242 235 236 226 199 209 212 209 217 222 202 205 217
233 231 226 221 218 214 211 220 240 240 243 253 258 251 251 249 247 249 247 243 253 249 255 263 263 262 258 254 256 247 240 225 222 236 211 208 207 208 212 216 187 203 217
227 225 224 217 210 206 212 225 233 245 250 258 259 253 250 252 250 248 245 244 245 249 258 262 249 254 249 250 253 243 236 228 209 207 210 210 208 205 212 195 192 208 222
214 211 211 207 206 215 228 238 247 258 259 257 252 255 256 254 255 245 237 245 249 250 254 262 247 257 254 246 227 226 239 221 219 207 200 201 196 198 199 195 202 211 204
201 201 202 205 211 234 246 251 260 268 271 266 266 261 255 249 243 247 244 254 249 255 257 253 259 262 260 258 251 231 229 217 227 211 203 207 200 202 202 200 197 192 187
191 194 200 220 231 245 256 261 263 270 269 270 266 259 242 240 260 249 243 243 253 259 258 258 265 259 269 261 251 245 244 240 230 218 222 224 215 226 213 210 202 200 197
192 207 230 241 249 262 268 271 274 279 281 277 271 261 251 249 249 244 244 253 256 250 244 234 240 265 269 276 278 269 261 256 242 229 214 215 219 223 218 210 198 197 204
232 244 253 260 266 270 270 273 277 282 284 277 270 255 253 242 247 254 258 254 255 255 251 254 260 265 276 279 275 272 275 264 250 237 227 205 198 190 189 200 193 189 182
241 253 255 257 260 262 269 278 283 284 281 277 261 254 249 253 262 263 250 255 261 260 263 263 266 275 279 274 261 255 237 263 255 236 226 220 212 209 195 191 195 193 191
261 261 260 259 260 265 273 279 283 275 276 277 268 259 252 254 249 249 247 253 262 268 273 277 278 280 276 263 242 213 233 261 243 239 225 211 208 204 201 196 197 190 209
271 272 271 263 257 256 262 269 271 266 262 259 258 249 244 242 244 243 248 249 244 254 263 269 294 276 262 235 233 223 204 240 139 161 174 168 180 199 200 203 205 199 196
273 275 269 265 255 253 257 259 253 259 253 245 246 252 245 233 248 250 252 253 249 227 248 260 275 282 281 251 197 178 155 132 133 151 159 165 184 189 189 197 203 208 215
274 281 282 275 268 263 251 246 246 241 228 238 226 223 237 240 248 254 261 253 232 233 245 238 246 186 166 188 148 151 136 141 169 178 150 133 138 142 160 175 182 188 196
268 267 268 263 251 246 225 228 235 230 227 232 232 226 218 205 245 254 250 239 211 208 209 220 195 185 187 156 153 159 161 160 170 157 134 132 135 135 135 138 138 135 148
260 257 257 261 242 234 230 236 243 242 239 236 232 219 222 216 238 237 229 224 224 215 185 177 177 185 175 172 172 163 157 156 162 156 150 151 146 145 144 141 135 143 148
258 260 252 244 233 227 219 236 235 231 229 228 226 230 231 226 226 217 209 195 178 172 171 185 176 173 182 167 162 163 165 179 170 163 160 159 154 166 153 147 152 155 155
257 257 251 237 228 226 219 207 230 226 215 215 213 212 214 210 207 209 204 186 169 162 175 188 192 188 185 186 182 174 181 193 163 167 169 173 182 169 159 163 160 159 159
250 248 234 225 220 217 217 212 220 206 202 204 192 188 187 195 194 193 176 157 191 199 192 192 199 189 189 190 188 184 190 163 175 167 181 171 167 166 170 169 173 171 170
247 230 219 216 215 205 200 201 197 201 196 195 172 176 174 185 177 185 172 192 208 202 198 193 196 196 194 193 202 193 182 191 185 172 192 182 174 171 176 173 182 180 163
232 216 213 211 204 197 196 193 193 196 188 176 185 189 187 168 188 186 190 190 171 207 218 200 203 197 197 191 195 189 184 184 186 182 189 189 178 172 178 172 178 168 182
214 213 205 200 194 190 190 193 192 189 188 184 200 202 187 173 203 197 203 203 192 187 206 191 198 194 186 188 194 196 194 194 194 189 187 190 188 186 187 187 186 189 202
206 198 195 192 188 191 184 188 189 190 192 198 207 207 190 191 210 212 218 226 214 193 181 207 180 182 201 199 197 198 193 201 206 195 195 190 188 195 195 198 201 214 222
195 190 182 180 187 181 181 189 190 190 194 201 205 198 191 201 207 211 221 226 223 217 198 193 183 193 211 194 192 191 191 211 211 211 187 195 193 203 200 207 223 226 225
189 183 184 190 187 182 188 190 186 193 198 197 193 193 195 203 205 213 215 221 189 176 182 176 177 197 201 194 196 184 211 221 212 215 208 200 201 215 208 225 230 239 238
187 187 190 186 187 192 195 195 194 197 197 194 191 196 197 195 200 203 205 191 177 178 181 181 191 199 203 211 220 219 219 226 230 232 222 206 211 220 234 231 235 224 240